Location: Caltech
(34.1382°N, 118.1253°W)
Time: 07:01:27
(UTC-07:00)

NOAA 19 - Visible Passes

Search period start: 28 August 2016 00:00
Search period end: 07 September 2016 00:00
Orbit: 842 x 862 km, 99.0° (Epoch: 27 August)

Date Brightness Start Highest point End Pass type
(mag) Time Alt. Az. Time Alt. Az. Time Alt. Az.
28 Aug 5.1 03:57:22 10° NNE 04:02:56 88° ESE 04:03:15 81° S visible
28 Aug 7.2 05:41:36 10° NW 05:42:48 11° WNW 05:44:01 10° WNW visible
29 Aug 5.3 03:46:01 10° NNE 03:51:32 69° ESE 03:51:37 69° ESE visible
29 Aug 7.0 05:28:50 10° NNW 05:31:35 14° WNW 05:33:39 12° W visible
30 Aug 5.8 03:34:43 10° NNE 03:40:00 53° E 03:40:00 53° E visible
30 Aug 6.7 05:16:43 10° NNW 05:20:20 18° WNW 05:22:02 16° W visible
31 Aug 6.2 03:23:29 10° NNE 03:28:22 41° E 03:28:22 41° E visible
31 Aug 6.4 05:04:51 10° NNW 05:09:04 23° WNW 05:10:24 21° W visible
01 Sep 6.7 03:12:20 10° NE 03:16:46 31° E 03:16:46 31° E visible
01 Sep 6.1 04:53:06 10° N 04:57:47 29° WNW 04:58:47 27° W visible
02 Sep 7.1 03:01:18 10° NE 03:05:09 24° E 03:05:09 24° E visible
02 Sep 5.8 04:41:27 10° N 04:46:29 37° WNW 04:47:09 35° W visible
03 Sep 7.4 02:50:25 10° NE 02:53:31 19° E 02:53:31 19° E visible
03 Sep 5.5 04:29:52 10° N 04:35:09 47° WNW 04:35:32 46° W visible
04 Sep 7.7 02:39:48 10° ENE 02:41:53 14° E 02:41:53 14° E visible
04 Sep 5.2 04:18:21 10° N 04:23:49 60° WNW 04:23:55 60° W visible
05 Sep 8.0 02:29:56 10° ENE 02:30:16 10° E 02:30:16 10° E visible
05 Sep 5.1 04:06:53 10° N 04:12:17 77° NW 04:12:17 77° NW visible
06 Sep 5.3 03:55:29 10° NNE 04:00:40 76° NE 04:00:40 76° NE visible
06 Sep 7.1 05:39:13 10° NW 05:40:58 11° WNW 05:42:41 10° W visible
